EW8704 Weather Reports


time (UTC)temp
F
wind
direction
speed
knots
gust
knots
rain 1hr
in
rain 24hr
in
rain mn
in
humidity
%
barometer
mb
20260503223041 69 286 7.8 13.9 0.00 0.02 0.02 28 1002.6
20260503221549 69 298 13.0 18.2 0.00 0.02 0.02 27 1002.6
20260503220021 69 312 8.7 19.1 0.00 0.02 0.02 28 1002.7
20260503214530 69 311 9.6 15.6 0.00 0.02 0.02 28 1002.6
20260503213100 70 313 9.6 21.7 0.00 0.02 0.02 28 1002.7
20260503213009 69 293 9.6 21.7 0.00 0.02 0.02 31 1002.7
20260503211557 69 279 10.4 16.5 0.00 0.02 0.02 33 1002.7
20260503210048 69 296 9.6 17.4 0.00 0.02 0.02 30 1002.9
20260503204557 70 293 6.1 12.2 0.00 0.02 0.02 33 1002.9
20260503203018 69 275 8.7 15.6 0.00 0.02 0.02 36 1002.9
20260503201507 69 260 5.2 15.6 0.00 0.02 0.02 39 1003.1
20260503200043 69 290 5.2 13.9 0.00 0.02 0.02 37 1003.4
20260503194536 68 313 7.0 15.6 0.00 0.02 0.02 39 1003.5
20260503193004 68 308 10.4 17.4 0.00 0.02 0.02 35 1003.5
20260503191502 69 298 3.5 13.0 0.00 0.02 0.02 40 1003.6
20260503190043 68 355 8.7 13.9 0.00 0.02 0.02 38 1003.7
20260503184524 68 260 7.8 13.0 0.00 0.02 0.02 45 1003.7
20260503183050 67 282 7.8 12.2 0.00 0.02 0.02 42 1003.9
20260503181539 66 232 6.1 13.9 0.00 0.02 0.02 49 1004.1
20260503180108 66 295 7.8 13.0 0.00 0.02 0.02 46 1004.2
20260503180008 66 282 7.8 13.0 0.00 0.02 0.02 46 1004.3
20260503174554 65 277 7.0 13.0 0.00 0.02 0.02 46 1004.3
20260503173019 65 216 7.8 12.2 0.00 0.02 0.02 47 1004.4
20260503171514 64 309 6.1 11.3 0.00 0.02 0.02 46 1004.6
20260503081555 54 136 1.7 5.2 0.00 0.00 0.00 61 1007.3
20260503071540 54 111 0.0 1.7 0.00 0.00 0.00 61 1007.9
20260503054540 55 234 3.5 8.7 0.00 0.00 0.00 57 1009.6
20260503053019 55 250 5.2 7.8 0.00 0.00 0.00 54 1009.6
20260503051504 55 205 4.3 7.8 0.00 0.00 0.00 53 1009.4
20260503050144 54 183 2.6 6.1 0.00 0.00 0.00 54 1009.4
20260503044554 54 205 1.7 5.2 0.00 0.00 0.00 53 1009.5
20260503043023 54 194 2.6 6.1 0.00 0.00 0.00 50 1009.7
20260503041521 55 168 1.7 3.5 0.00 0.00 0.00 49 1009.9
20260503040043 55 177 1.7 4.3 0.00 0.00 0.00 49 1010.0
20260503034545 55 165 1.7 3.5 0.00 0.00 0.00 47 1010.2
20260503033005 55 182 2.6 3.5 0.00 0.00 0.00 46 1010.5
20260503031610 55 177 1.7 4.3 0.00 0.00 0.00 48 1010.7
20260503030035 56 173 2.6 4.3 0.00 0.00 0.00 47 1010.9
20260503024529 55 171 4.3 6.1 0.00 0.00 0.00 48 1011.0
20260503023000 55 193 2.6 4.3 0.00 0.00 0.00 47 1011.1
20260503021603 55 186 2.6 5.2 0.00 0.00 0.00 46 1011.1
20260503020041 56 163 2.6 4.3 0.00 0.00 0.00 47 1011.2
20260503014553 56 178 1.7 4.3 0.00 0.00 0.00 44 1011.2
20260503013024 57 184 2.6 4.3 0.00 0.00 0.00 44 1011.2
20260503011514 57 179 1.7 5.2 0.00 0.00 0.00 45 1011.3
20260503010052 57 173 2.6 4.3 0.00 0.00 0.00 44 1011.5
20260503004551 58 165 1.7 4.3 0.00 0.00 0.00 43 1011.5
20260503003023 58 203 2.6 5.2 0.00 0.00 0.00 42 1011.5
20260503001513 58 210 3.5 5.2 0.00 0.00 0.00 41 1011.8
20260503000058 59 196 2.6 7.8 0.00 0.00 0.00 41 1012.0
20260502234545 59 244 2.6 7.0 0.00 0.00 0.00 42 1012.2
20260502233021 59 219 4.3 11.3 0.00 0.00 0.00 41 1012.3
20260502231521 59 230 4.3 13.0 0.00 0.00 0.00 42 1012.3
20260502230051 59 219 8.7 13.0 0.00 0.00 0.00 40 1012.5
20260502224559 59 219 5.2 11.3 0.00 0.00 0.00 41 1012.7